Weather History for KIIY - January, 2013

Change the Weather History Date:

Wednesday, January 9, 2013

  Actual Average (KDBN) Record (KDBN)
Temperature  
Mean Temperature 54 °F -  
Max Temperature 64 °F 54 °F 78 °F (1957)
Min Temperature 44 °F 32 °F 7 °F (1970)
Degree Days  
Heating Degree Days 11    
Growing Degree Days 4 (Base 50)    
Moisture  
Dew Point 45 °F    
Average Humidity 78    
Maximum Humidity 100    
Minimum Humidity 55    
Precipitation  
Precipitation 0.00 in - - ()
Sea Level Pressure  
Sea Level Pressure 30.39 in    
Wind  
Wind Speed 3 mph (NNE)    
Max Wind Speed 6 mph    
Max Gust Speed -    
Visibility 10 miles    
Events      
Averages and records for this station are not official NWS values.
T = Trace of Precipitation, MM = Missing Value Source: NWS Daily Summary

Daily Weather History Graph

Daily Weather History Graph

Search for Another Location

Airport or City:

Trip Planner

Search our weather history database for the weather conditions in past years. The results will help you decide how hot, cold, wet, or windy it might be!

Date:

Astronomy

Jan. 09, 2013 Rise Set
Actual Time 7:36 AM EST 5:40 PM EST
Civil Twilight 7:09 AM EST 6:07 PM EST
Nautical Twilight 6:38 AM EST 6:38 PM EST
Astronomical Twilight 6:08 AM EST 7:08 PM EST
Moon 5:14 AM EST (1/9) 3:41 PM EST (1/9)
Length of Visible Light 10h 58m
Length of Day
10h 03m
Waning Crescent, 6% of the Moon is Illuminated
Jan 9
Waning Crescent
Jan 11
New
Jan 18
First Quarter
Jan 26
Full
Feb 3
Last Quarter

Hourly Weather History & Observations

Time (EST) Temp. Windchill Dew Point Humidity Pressure Visibility Wind Dir Wind Speed Gust Speed Precip Events Conditions
12:15 AM 50.0 °F - 41.0 °F 71% 30.36 in 10.0 mi NE 3.5 mph - N/A   Mostly Cloudy
12:55 AM 48.2 °F - 39.2 °F 71% 30.36 in 10.0 mi NNE 3.5 mph - N/A   Mostly Cloudy
1:15 AM 50.0 °F - 41.0 °F 71% 30.36 in 10.0 mi NNE 3.5 mph - N/A   Mostly Cloudy
1:35 AM 50.0 °F - 41.0 °F 71% 30.37 in 10.0 mi North 3.5 mph - N/A   Mostly Cloudy
1:55 AM 48.2 °F - 41.0 °F 76% 30.36 in 10.0 mi NNE 3.5 mph - N/A   Mostly Cloudy
2:15 AM 48.2 °F - 41.0 °F 76% 30.36 in 10.0 mi NNE 4.6 mph - N/A   Mostly Cloudy
2:35 AM 46.4 °F 45.2 °F 39.2 °F 76% 30.36 in 10.0 mi NNE 3.5 mph - N/A   Mostly Cloudy
2:55 AM 46.4 °F 45.2 °F 41.0 °F 81% 30.37 in 10.0 mi North 3.5 mph - N/A   Mostly Cloudy
3:15 AM 46.4 °F 44.3 °F 41.0 °F 81% 30.37 in 10.0 mi North 4.6 mph - N/A   Overcast
3:35 AM 48.2 °F - 41.0 °F 76% 30.36 in 10.0 mi North 4.6 mph - N/A   Overcast
3:55 AM 48.2 °F - 41.0 °F 76% 30.36 in 10.0 mi NNE 4.6 mph - N/A   Overcast
4:15 AM 48.2 °F - 41.0 °F 76% 30.35 in 10.0 mi North 4.6 mph - N/A   Mostly Cloudy
4:35 AM 46.4 °F 45.2 °F 41.0 °F 81% 30.36 in 10.0 mi North 3.5 mph - N/A   Scattered Clouds
4:55 AM 46.4 °F 45.2 °F 41.0 °F 81% 30.35 in 10.0 mi NNE 3.5 mph - N/A   Scattered Clouds
5:15 AM 46.4 °F 45.2 °F 41.0 °F 81% 30.36 in 10.0 mi North 3.5 mph - N/A   Clear
5:35 AM 44.6 °F 42.2 °F 41.0 °F 87% 30.36 in 10.0 mi North 4.6 mph - N/A   Clear
5:55 AM 46.4 °F 45.2 °F 41.0 °F 81% 30.37 in 10.0 mi North 3.5 mph - N/A   Clear
6:15 AM 46.4 °F 44.3 °F 41.0 °F 81% 30.37 in 10.0 mi North 4.6 mph - N/A   Clear
6:35 AM 46.4 °F 43.5 °F 41.0 °F 81% 30.37 in 10.0 mi North 5.8 mph - N/A   Clear
6:55 AM 46.4 °F 43.5 °F 41.0 °F 81% 30.38 in 10.0 mi North 5.8 mph - N/A   Clear
7:15 AM 46.4 °F 44.3 °F 41.0 °F 81% 30.39 in 10.0 mi North 4.6 mph - N/A   Clear
7:35 AM 46.4 °F 45.2 °F 41.0 °F 81% 30.40 in 10.0 mi North 3.5 mph - N/A   Clear
7:55 AM 46.4 °F 44.3 °F 41.0 °F 81% 30.41 in 10.0 mi North 4.6 mph - N/A   Clear
8:15 AM 46.4 °F 44.3 °F 41.0 °F 81% 30.41 in 10.0 mi North 4.6 mph - N/A   Clear
8:35 AM 50.0 °F - 41.0 °F 71% 30.42 in 10.0 mi North 4.6 mph - N/A   Scattered Clouds
8:55 AM 51.8 °F - 41.0 °F 67% 30.43 in 10.0 mi NNE 4.6 mph - N/A   Scattered Clouds
9:35 AM 53.6 °F - 42.8 °F 67% 30.45 in 10.0 mi North 3.5 mph - N/A   Scattered Clouds
9:55 AM 53.6 °F - 42.8 °F 67% 30.44 in 10.0 mi Calm Calm - N/A   Scattered Clouds
10:15 AM 53.6 °F - 42.8 °F 67% 30.44 in 10.0 mi Calm Calm - N/A   Scattered Clouds
10:35 AM 55.4 °F - 42.8 °F 63% 30.44 in 10.0 mi Calm Calm - N/A   Clear
10:55 AM 59.0 °F - 44.6 °F 59% 30.44 in 10.0 mi East 4.6 mph - N/A   Clear
11:15 AM 59.0 °F - 42.8 °F 55% 30.43 in 10.0 mi Calm Calm - N/A   Clear
4:55 PM 64.4 °F - 51.8 °F 64% 30.37 in 10.0 mi North 3.5 mph - N/A   Clear
5:15 PM 62.6 °F - 50.0 °F 63% 30.37 in 10.0 mi NNE 3.5 mph - N/A   Clear
5:35 PM 60.8 °F - 51.8 °F 72% 30.37 in 10.0 mi Calm Calm - N/A   Clear
5:55 PM 60.8 °F - 51.8 °F 72% 30.39 in 10.0 mi Calm Calm - N/A   Clear
6:15 PM 59.0 °F - 51.8 °F 77% 30.38 in 10.0 mi Calm Calm - N/A   Clear
6:35 PM 59.0 °F - 53.6 °F 82% 30.39 in 10.0 mi Calm Calm - N/A   Clear
6:55 PM 59.0 °F - 53.6 °F 82% 30.38 in 10.0 mi NE 3.5 mph - N/A   Clear
7:15 PM 59.0 °F - 51.8 °F 77% 30.39 in 10.0 mi NE 3.5 mph - N/A   Clear
7:35 PM 59.0 °F - 53.6 °F 82% 30.39 in 10.0 mi NE 3.5 mph - N/A   Clear
7:55 PM 59.0 °F - 53.6 °F 82% 30.39 in 10.0 mi NE 3.5 mph - N/A   Clear
8:55 PM 55.4 °F - 51.8 °F 88% 30.40 in 10.0 mi Calm Calm - N/A   Clear
9:35 PM 55.4 °F - 53.6 °F 94% 30.40 in 10.0 mi Calm Calm - N/A   Clear
9:55 PM 55.4 °F - 51.8 °F 88% 30.40 in 10.0 mi Calm Calm - N/A   Clear
10:15 PM 55.4 °F - 51.8 °F 88% 30.41 in 10.0 mi NNE 4.6 mph - N/A   Clear
10:35 PM 53.6 °F - 51.8 °F 94% 30.41 in 10.0 mi NE 4.6 mph - N/A   Clear
10:55 PM 53.6 °F - 51.8 °F 94% 30.41 in 10.0 mi Calm Calm - N/A   Clear
11:15 PM 53.6 °F - 51.8 °F 94% 30.41 in 10.0 mi Calm Calm - N/A   Clear
11:35 PM 53.6 °F - 51.8 °F 94% 30.41 in 10.0 mi Calm Calm - N/A   Clear
11:55 PM 53.6 °F - 53.6 °F 100% 30.42 in 10.0 mi Calm Calm - N/A   Clear